Wind_Speed
11 10 9 9 7 6 5 5 5 5 7 8 8 8 9 9 9 9 10 10 11 11 11 11 11 11 10 9 10 9 10 10 10 10 10 10 10 9 9 9 9 8 7 7 7 7 7 7 7 7 7 7 6 6 7 7 7 7 7 7 7 7 7 7 8 8 9 9 10 10 10 10 11 12
12 12 11 10 9 8 6 6 7 6 7 8 9 9 9 9 9 9 10 9 10 11 12 12 12 12 11 11 11 11 11 11 11 12 12 12 12 11 11 11 11 10 9 9 9 8 9 9 9 9 9 9 9 8 8 8 8 8 8 8 8 8 9 9 9 10 10 11 11 12 12 12 13 13
13 13 12 10 9 8 7 7 7 7 7 8 9 10 9 9 9 9 9 9 9 10 11 11 11 11 11 11 11 11 11 11 12 12 12 13 12 12 12 12 12 12 11 11 10 10 10 10 10 10 10 10 10 10 10 10 10 10 10 10 10 10 10 10 11 11 12 13 13 13 14 14 14 15
13 12 12 11 9 9 8 8 8 8 7 8 8 9 9 8 8 8 9 9 9 9 9 10 10 10 9 10 10 10 11 11 12 12 12 12 13 13 12 12 12 12 12 12 12 11 11 11 11 11 11 11 11 11 11 11 11 11 11 11 11 11 11 12 12 13 14 14 15 15 15 16 16 16
12 11 12 12 11 10 9 9 8 8 9 9 9 9 9 8 8 8 8 9 9 8 9 10 11 11 10 9 10 10 10 11 11 12 12 12 12 12 12 12 12 12 12 13 13 13 12 12 12 12 12 12 12 12 12 12 12 12 12 12 13 13 13 14 14 15 15 16 16 17 17 17 18 18
10 11 11 12 12 12 11 10 9 10 10 10 10 10 10 10 10 9 9 9 9 9 9 10 12 12 11 11 12 12 11 11 12 12 12 12 13 13 12 12 12 12 13 13 13 13 13 13 13 13 13 13 14 14 14 14 14 14 14 14 15 15 15 16 16 17 17 17 18 18 19 19 20 20
9 10 10 10 12 13 14 13 11 11 11 11 10 10 11 11 11 11 10 10 10 11 11 12 12 12 12 13 14 14 13 12 12 12 13 13 13 14 14 13 13 14 13 14 14 14 14 14 14 15 15 15 16 16 16 16 16 17 17 17 17 18 18 18 18 19 19 19 20 20 21 21 22 22
9 10 10 10 10 12 14 14 13 12 12 12 12 12 12 12 12 12 12 12 12 12 13 14 14 13 13 13 14 15 14 13 14 14 14 14 13 14 15 15 15 15 15 15 15 15 15 15 15 15 16 17 17 17 17 18 18 18 19 19 19 20 20 20 20 21 21 22 22 22 23 23 23 23
9 11 12 12 11 11 12 13 13 13 13 13 13 13 13 12 12 13 13 13 13 13 14 15 16 16 15 14 14 15 15 15 16 17 16 15 15 15 16 16 16 16 16 17 17 17 17 17 17 17 17 18 18 19 19 19 19 20 20 20 20 21 21 21 22 22 23 24 24 25 25 25 25 25
11 12 12 12 12 12 12 13 14 14 14 13 14 14 14 14 14 14 14 14 15 14 14 15 17 18 17 16 15 15 16 18 19 18 18 18 18 18 18 18 18 18 18 18 19 19 19 18 19 19 19 20 20 20 21 21 21 21 21 21 22 22 22 22 23 24 24 25 25 25 25 26 26 26
11 12 11 12 12 13 13 13 14 15 14 14 14 14 15 16 16 16 16 16 16 16 16 16 17 17 17 18 17 16 17 20 22 21 19 20 20 20 20 20 20 20 20 20 20 20 20 20 20 21 21 21 21 22 22 22 22 23 23 23 23 23 23 24 24 24 24 25 25 25 26 26 27 27
11 11 11 11 12 12 12 12 13 13 13 13 14 14 15 15 16 17 18 17 17 17 17 17 18 18 18 20 20 19 19 21 23 24 23 22 21 21 22 22 23 22 21 22 22 22 22 22 22 22 22 22 23 23 23 23 23 23 23 24 24 24 24 24 24 25 25 25 25 26 27 27 28 28
11 12 11 12 13 13 14 14 14 13 13 13 14 15 15 16 16 17 18 18 18 18 18 19 19 20 20 21 22 21 21 22 24 25 25 24 23 22 23 23 24 24 23 23 23 23 23 23 23 23 24 24 24 25 24 23 23 24 24 24 24 24 25 25 25 26 26 26 27 28 28 29 30 30
12 12 12 13 14 14 14 14 14 13 13 13 14 15 15 15 16 17 18 18 18 18 19 19 21 21 21 22 23 23 24 25 25 26 27 27 26 25 26 26 26 27 26 24 24 24 24 24 24 25 25 25 26 26 25 24 25 25 25 25 25 26 26 26 27 27 28 28 29 30 31 32 33 33
11 11 12 12 13 13 13 12 11 11 11 12 13 13 14 14 15 17 18 18 18 18 18 19 21 22 22 23 24 25 26 28 28 29 30 29 28 27 27 28 30 31 29 26 24 24 25 25 25 26 26 26 27 27 27 26 26 26 26 27 27 27 28 28 28 29 30 31 32 33 34 35 36 36
10 10 10 10 11 11 11 10 9 10 10 10 12 13 14 15 16 17 18 19 19 18 18 19 21 23 24 24 24 25 27 28 30 31 31 30 30 28 26 26 31 34 33 30 27 27 28 28 27 27 27 28 29 29 28 27 27 27 28 28 29 29 30 30 31 32 32 33 34 35 34 34 34 35
9 9 9 10 10 11 10 10 11 11 12 12 13 14 15 16 17 18 19 20 20 20 20 21 23 24 25 25 26 28 28 29 29 30 29 29 29 29 28 28 32 35 35 34 32 31 31 31 30 29 29 31 31 30 29 28 28 29 30 30 31 31 31 32 33 34 34 34 34 33 32 31 30 30
9 9 10 10 11 11 11 11 12 13 13 14 15 16 16 17 18 20 20 21 21 21 21 22 24 26 26 26 28 31 32 31 30 29 29 30 30 31 32 32 33 35 35 35 35 33 32 33 33 32 30 31 32 32 32 32 31 31 32 31 32 32 33 34 34 33 33 32 31 31 30 28 27 26
10 11 11 11 11 11 12 12 13 14 15 15 16 17 17 18 19 21 21 22 22 22 23 23 24 26 27 26 28 32 33 32 31 29 30 32 32 33 34 34 34 34 35 35 36 34 33 34 35 34 32 33 34 35 35 34 33 33 33 33 33 34 34 33 33 32 31 29 28 28 26 26 25 25
11 12 12 12 12 12 12 13 14 15 16 16 16 17 18 19 20 21 22 22 23 24 24 25 25 27 27 27 29 31 33 32 30 28 30 33 35 35 36 36 36 35 35 35 36 35 34 34 36 36 36 36 35 35 34 34 35 35 34 34 34 33 32 31 31 31 29 27 26 25 24 25 26 27
12 12 12 12 12 12 13 14 15 16 17 17 17 17 18 19 20 21 22 22 23 24 25 25 26 27 28 28 28 30 33 33 31 29 31 35 37 37 37 37 36 36 35 35 34 34 35 35 36 37 36 35 33 33 33 34 34 32 31 30 30 30 30 29 28 28 27 26 25 25 26 27 29 30
13 12 12 13 13 14 14 15 16 17 18 18 19 19 20 20 21 22 23 24 24 25 26 26 27 28 28 29 29 29 32 34 34 32 32 35 36 36 36 37 37 37 36 34 34 34 34 34 35 34 33 32 32 32 32 32 30 28 26 25 26 26 27 27 26 26 26 27 27 28 29 31 32 33
12 12 12 14 16 16 17 17 17 18 19 21 21 21 22 22 23 23 24 25 26 26 27 28 28 29 30 30 31 32 33 34 35 35 35 36 36 37 37 38 38 36 34 33 34 34 34 34 34 32 32 32 32 30 29 28 27 25 23 24 26 27 27 27 28 28 29 30 30 31 32 34 34 35
14 13 14 16 18 18 18 18 18 19 20 22 23 23 23 23 23 24 25 25 26 26 27 28 28 29 30 31 33 34 35 35 36 36 37 38 38 39 37 36 35 34 34 33 34 34 35 33 32 32 32 31 30 28 27 27 26 25 26 27 28 29 30 31 31 31 32 33 34 34 35 36 36 36
16 15 16 18 20 20 19 19 19 20 21 22 23 24 24 23 24 25 25 26 26 26 26 27 27 29 30 31 32 34 35 36 37 37 37 38 39 39 37 35 35 35 34 33 33 35 35 33 32 33 33 32 32 32 32 32 32 32 33 32 31 32 33 35 35 35 35 35 36 36 37 37 37 37
17 17 18 19 20 20 20 20 21 21 21 22 23 24 25 25 25 25 26 27 27 28 28 28 28 29 30 31 32 33 34 35 37 38 38 39 40 41 40 39 39 38 36 35 34 35 36 35 35 36 36 36 38 37 36 35 35 35 35 35 34 34 35 36 36 36 36 36 36 37 37 37 36 36
18 18 20 21 21 22 22 22 23 23 23 23 23 24 24 25 26 26 27 27 27 27 28 28 29 29 30 30 31 33 34 35 36 37 38 39 40 41 42 42 41 40 39 38 36 35 36 36 36 36 36 36 36 35 34 33 33 33 33 33 34 34 35 35 36 36 35 35 36 36 36 34 33 32
19 20 21 22 23 23 23 24 24 24 23 23 22 23 23 24 25 25 25 25 25 25 26 27 27 28 29 30 31 32 33 34 34 35 36 38 39 41 42 42 42 42 41 40 39 38 37 36 35 34 34 34 34 33 33 33 32 32 32 32 33 33 34 34 34 34 34 34 34 33 31 29 28 27
20 21 23 24 24 23 23 24 23 23 22 22 22 22 23 23 22 23 23 23 23 24 25 25 26 27 28 29 30 31 32 33 34 34 35 36 37 39 40 41 41 41 40 39 39 39 39 37 36 34 33 33 33 33 33 32 32 31 31 32 32 33 32 32 31 31 31 31 29 26 25 24 23 21
21 23 24 24 23 23 23 23 23 22 21 21 21 21 20 20 20 20 21 21 21 22 23 24 25 25 26 27 28 29 30 31 32 33 33 34 35 35 37 38 38 38 38 37 37 37 37 37 36 34 33 32 32 32 32 32 32 31 31 31 32 32 31 29 27 26 26 25 23 21 21 20 19 19
23 24 25 24 23 22 23 23 23 21 20 20 20 19 17 17 18 18 19 19 20 20 21 22 23 24 24 25 26 27 27 28 29 29 30 30 31 31 32 33 34 34 34 34 34 34 34 34 34 34 33 32 32 31 31 31 31 31 30 31 31 30 28 25 23 23 23 22 21 19 19 18 17 17
24 25 25 24 22 22 23 23 22 21 20 19 18 16 15 15 15 15 16 17 18 19 20 21 22 22 23 23 23 23 24 25 25 26 26 26 26 27 28 29 30 31 31 32 32 32 32 32 32 32 32 31 31 30 30 30 31 30 29 29 29 28 25 23 23 23 22 20 19 18 17 16 16 15
25 25 25 23 22 22 23 23 22 20 18 17 17 15 14 13 13 13 14 15 16 17 18 20 20 21 21 21 21 21 21 21 22 23 23 23 23 23 24 25 26 27 28 29 30 30 30 30 30 30 30 29 29 29 29 29 29 27 26 25 26 26 25 24 23 22 20 18 17 16 15 14 15 15
25 25 25 24 23 23 23 22 21 18 17 17 16 15 14 13 12 12 12 13 15 16 17 18 19 20 20 20 20 20 19 19 20 20 20 21 21 21 21 22 23 24 25 25 26 27 27 27 27 27 27 27 27 27 27 27 26 25 24 23 23 23 23 22 20 19 17 15 15 14 14 14 14 15
25 26 26 25 24 23 23 22 20 18 16 16 16 16 15 13 12 12 12 13 14 15 17 18 19 20 21 20 20 20 19 19 19 19 19 19 19 19 19 19 20 20 21 22 22 23 23 23 23 23 23 23 24 24 23 23 23 22 21 21 20 19 19 18 16 15 15 14 14 14 14 14 15 15
25 26 26 25 25 24 22 21 20 18 17 16 16 16 16 15 13 13 13 13 14 15 17 18 19 20 21 21 21 20 20 19 19 18 18 18 18 18 17 17 18 18 18 18 18 18 18 18 18 18 18 18 18 18 17 17 17 17 16 16 16 16 16 16 16 15 15 15 15 15 16 16 17 17
25 25 26 26 26 24 23 21 21 20 18 17 16 17 17 17 15 14 14 14 15 16 17 18 19 20 21 21 21 21 20 20 19 19 18 18 18 17 17 17 17 16 16 16 16 15 15 14 13 13 13 13 12 12 12 12 13 13 14 15 15 16 16 16 16 16 16 17 16 17 17 18 18 19
24 25 25 26 26 25 24 23 22 22 20 18 17 17 18 18 18 17 16 16 16 16 17 18 19 20 21 22 22 22 21 21 21 20 19 19 18 18 17 17 17 17 16 16 15 15 14 13 12 12 12 12 12 12 12 13 14 14 15 16 16 16 16 17 17 17 17 18 18 18 19 19 19 20
25 25 25 26 26 26 25 25 24 24 23 21 20 19 19 19 20 19 19 18 18 18 18 19 19 20 21 21 22 22 22 22 22 21 21 21 20 20 19 19 19 18 18 17 17 16 16 15 15 14 15 15 15 15 15 16 16 16 16 17 17 16 17 17 18 18 18 19 19 19 20 20 20 20
24 25 25 25 26 26 26 26 26 25 25 24 22 21 21 21 21 21 21 21 20 20 20 20 20 20 21 21 22 22 22 22 22 22 22 22 22 22 22 21 21 21 21 20 20 20 19 19 19 18 18 19 19 19 18 18 18 18 17 17 17 17 17 18 18 19 19 20 20 20 21 21 21 21
23 24 25 26 26 26 26 26 27 26 26 26 25 24 23 22 23 23 23 23 23 22 22 22 22 22 22 22 22 22 22 23 23 23 24 24 24 23 23 23 23 23 23 23 23 23 23 23 23 22 21 21 21 21 20 19 19 18 18 18 18 18 18 18 20 20 20 21 21 21 21 21 21 21
24 25 26 27 28 27 27 26 27 27 27 27 26 26 25 24 24 24 24 24 24 24 24 24 24 23 23 23 22 22 22 23 23 23 24 24 25 24 24 24 24 24 24 24 24 24 24 24 24 24 23 22 22 21 20 20 19 19 19 19 19 19 19 20 20 21 21 22 22 22 22 22 22 22
31 30 30 29 29 28 27 27 27 27 27 27 27 27 26 26 25 25 25 25 25 25 25 25 25 25 24 24 23 23 23 23 23 23 23 24 24 24 24 24 24 24 25 25 24 24 24 24 24 24 23 22 22 21 20 20 20 20 20 20 20 20 20 21 21 21 22 22 23 23 22 22 23 23
34 34 33 31 30 29 28 27 27 27 28 28 28 28 27 27 27 27 26 26 26 26 26 26 25 25 25 24 24 24 24 24 23 23 23 24 24 24 24 24 24 24 25 25 24 24 25 25 25 25 24 23 22 21 21 20 20 20 21 21 21 21 21 21 22 22 23 23 23 24 23 23 23 24
33 33 32 31 30 29 28 28 28 28 28 29 29 29 28 28 28 28 28 27 27 27 27 27 26 26 26 25 25 24 24 25 25 25 25 25 24 24 24 25 24 24 25 25 25 24 24 25 25 25 24 24 23 22 22 21 21 21 22 22 22 22 22 22 23 23 23 24 24 25 25 25 25 25
Wind_Direction
245 247 249 250 253 261 272 283 286 288 297 311 323 332 338 342 343 344 346 349 345 341 343 345 344 343 341 341 340 341 341 335 333 333 334 335 333 331 329 326 324 323 322 321 320 319 317 314 313 310 309 307 305 305 305 304 304 302 300 299 299 299 299 298 298 299 299 300 299 299 299 299 299 299
246 246 248 248 251 258 267 281 288 293 301 310 319 324 332 339 341 342 345 347 341 339 342 343 344 341 337 338 338 336 335 332 328 328 330 331 330 328 325 322 321 319 317 316 314 312 310 306 304 302 302 302 301 301 300 300 301 300 299 297 296 295 295 294 295 295 296 296 296 296 296 296 296 296
249 247 249 248 252 261 270 279 287 297 304 307 312 318 326 334 337 336 339 341 340 338 338 338 339 335 332 334 334 331 330 327 324 324 324 326 327 327 324 320 318 314 312 309 308 307 306 303 300 297 296 295 294 295 294 293 294 294 293 292 291 291 291 291 293 293 294 294 294 294 294 295 295 296
254 254 257 258 258 264 270 275 283 294 298 298 301 307 315 321 326 326 327 330 332 332 329 327 327 325 324 326 323 322 322 319 318 318 318 319 320 321 321 318 315 311 308 306 304 303 301 300 299 297 296 295 294 294 293 292 292 291 291 291 290 289 289 290 291 292 293 294 294 293 293 293 294 296
262 266 270 271 272 271 271 274 282 288 290 294 299 305 308 311 315 316 317 319 321 324 322 319 319 319 318 317 312 311 312 311 310 311 312 314 314 314 315 314 312 309 307 303 300 298 296 294 294 293 293 293 293 293 293 292 290 289 287 286 286 286 286 289 291 292 293 293 293 292 292 291 293 295
267 272 276 281 284 282 275 272 274 277 281 290 299 305 306 308 311 311 313 315 316 317 316 314 317 316 311 309 309 307 304 305 307 308 310 312 311 311 311 310 308 306 304 301 297 294 291 289 287 286 286 286 285 285 284 284 284 283 282 281 281 281 283 286 288 290 292 292 292 292 291 291 292 293
270 270 268 272 279 279 276 273 273 277 284 290 294 297 298 300 303 305 308 310 310 311 309 307 312 312 308 303 300 301 300 299 302 304 307 310 308 308 308 307 304 302 299 297 294 291 289 287 285 283 281 279 278 277 277 277 277 278 278 278 278 279 281 282 284 286 288 289 290 290 290 290 290 291
272 267 257 255 263 272 276 279 282 284 286 287 288 288 289 292 296 300 303 304 304 304 303 302 303 304 305 296 287 289 294 297 301 303 304 305 303 301 303 302 299 297 295 293 291 289 287 285 283 282 279 277 276 274 274 274 274 274 275 276 277 278 279 280 281 283 285 287 288 288 288 288 289 289
260 257 254 257 266 273 277 279 282 281 280 280 281 282 283 287 292 295 297 296 295 294 294 297 298 299 301 296 286 286 287 291 302 307 303 299 295 292 292 291 290 290 290 289 288 286 285 283 281 280 278 277 275 274 273 273 273 273 274 274 275 276 277 278 279 281 283 286 287 288 288 288 288 288
253 252 255 264 271 273 270 268 270 273 274 276 278 280 283 287 290 291 291 291 290 291 292 295 298 299 300 298 294 291 282 278 289 301 301 297 293 290 287 284 284 285 285 285 285 284 283 282 281 279 278 276 274 273 273 272 272 273 272 273 273 274 275 276 278 280 283 285 286 287 288 288 288 288
257 256 260 267 272 273 272 271 273 276 277 278 280 283 286 289 292 293 294 293 293 295 297 297 297 299 299 296 292 289 281 275 277 284 288 290 290 289 286 283 282 281 281 281 281 282 282 281 281 280 279 278 276 275 274 272 272 272 272 272 273 274 275 277 279 281 282 284 285 287 288 288 289 289
256 258 262 267 269 272 275 275 276 278 281 284 284 285 286 289 293 294 294 293 292 294 296 297 298 299 298 295 291 289 285 282 280 281 282 281 281 281 280 279 278 277 277 278 278 279 280 280 281 280 279 279 278 276 274 274 273 272 272 272 274 275 277 279 280 282 283 284 286 287 288 289 289 289
253 255 259 262 265 266 267 267 270 275 281 284 285 287 288 290 292 292 292 292 292 293 295 298 299 299 297 294 292 289 286 285 286 284 280 275 274 276 277 277 279 278 277 278 279 279 280 280 280 280 279 277 275 274 274 274 272 271 272 273 274 276 278 280 282 283 285 286 287 288 289 289 289 288
251 251 254 258 261 263 264 266 270 276 282 286 288 291 292 292 291 289 288 289 291 293 296 297 296 296 293 291 291 290 288 287 287 286 281 276 276 277 277 279 283 284 279 276 275 277 279 280 278 277 277 276 274 274 274 272 272 272 274 275 276 278 280 282 283 285 285 286 287 288 288 288 287 286
253 255 257 259 261 263 266 270 274 280 288 293 295 295 294 291 289 288 289 291 292 294 295 295 294 292 289 288 289 289 288 287 288 287 284 281 280 279 278 279 283 283 279 276 275 275 274 274 274 274 276 276 274 273 273 272 273 274 276 277 278 280 281 282 284 284 285 286 287 288 288 288 287 285
248 252 256 258 260 265 271 277 283 286 289 291 293 293 292 291 290 291 293 294 295 295 294 292 291 290 289 290 289 287 285 285 286 286 284 283 283 281 280 280 281 282 281 279 281 281 277 274 274 273 272 272 272 271 272 273 274 274 275 276 278 279 281 282 284 285 286 286 287 288 288 287 286 284
245 250 255 260 264 270 276 282 286 288 289 289 290 290 291 292 293 293 292 290 290 289 288 288 287 287 288 290 289 286 285 285 285 286 287 287 285 281 281 282 282 283 283 279 279 283 284 282 281 278 273 271 269 269 269 271 272 272 273 274 276 278 280 282 284 285 285 285 285 285 284 284 284 285
251 256 261 265 270 275 279 281 281 284 286 287 286 286 287 289 290 290 289 289 289 289 289 288 287 287 289 289 288 287 286 286 287 289 290 290 287 283 284 284 282 284 284 280 278 281 284 284 284 283 278 273 271 271 271 270 270 270 270 272 274 276 278 280 282 282 282 283 284 284 284 285 285 287
256 260 264 269 274 278 282 283 282 283 284 285 287 288 289 290 290 291 292 294 295 295 294 293 292 292 293 293 292 289 287 286 287 288 288 288 287 285 285 284 282 281 282 281 280 282 284 285 285 283 281 277 275 274 274 273 272 271 270 271 273 274 276 277 279 280 280 282 283 284 286 288 289 289
264 267 270 274 277 279 281 282 283 284 286 288 289 291 292 292 293 294 296 296 296 296 296 296 295 295 295 295 294 292 289 286 287 288 286 284 283 283 284 283 282 280 280 281 282 283 284 285 283 282 282 280 277 277 277 277 276 274 272 273 274 274 275 277 278 280 281 282 283 283 286 290 291 291
268 271 274 276 278 278 277 279 281 284 287 290 292 293 294 295 295 294 294 294 293 293 294 293 292 292 292 293 293 292 291 289 289 288 284 282 282 283 284 284 284 283 283 283 283 283 284 282 280 280 280 280 280 281 282 282 281 280 280 281 281 280 280 280 281 283 284 284 284 285 288 290 290 291
267 270 274 277 279 280 282 284 288 292 294 295 296 297 297 297 296 294 293 292 291 291 291 290 290 290 291 291 290 289 289 289 289 289 286 285 287 287 285 284 283 282 282 283 283 282 283 282 281 280 280 281 282 283 283 284 284 286 288 290 289 287 284 283 285 286 286 286 286 287 288 290 291 291
271 276 281 283 285 288 291 293 295 296 298 299 299 299 299 297 295 293 292 292 292 292 291 291 291 291 291 291 290 288 287 287 289 291 290 290 290 288 285 283 281 280 281 284 284 283 284 283 282 282 284 285 285 283 284 286 287 287 290 293 292 289 287 287 287 288 287 287 288 288 288 289 290 292
279 284 288 287 288 290 292 293 294 296 297 298 298 298 297 297 296 294 293 293 292 292 291 290 290 290 289 289 288 288 289 289 289 289 289 289 289 288 286 285 284 284 284 284 285 285 284 283 284 287 288 288 286 286 287 289 289 289 292 293 289 286 287 288 288 287 287 287 288 288 289 290 291 292
282 286 287 285 286 288 290 291 293 295 297 298 299 300 301 302 301 300 300 299 298 296 294 292 290 288 287 287 287 288 289 289 288 286 286 287 287 287 286 287 288 288 288 288 288 286 284 283 286 289 288 287 288 291 292 292 291 292 293 291 286 284 286 287 287 287 287 287 288 288 288 289 290 290
282 284 283 283 285 289 292 294 296 298 299 299 300 302 304 305 305 304 304 303 302 301 299 297 295 293 292 291 290 289 288 287 286 286 285 285 286 286 286 286 287 287 289 289 288 285 283 284 286 288 287 287 289 292 293 292 291 291 291 289 286 285 285 286 286 287 287 288 287 287 287 288 288 288
281 283 284 286 289 292 295 297 299 299 300 300 301 302 303 304 304 304 304 303 304 303 302 301 299 298 296 294 292 290 289 288 287 285 284 283 284 284 285 286 286 287 287 287 286 285 284 285 286 287 288 288 289 290 290 289 288 288 287 286 286 285 285 285 285 286 286 286 286 286 286 287 286 286
281 283 285 288 291 293 295 296 297 298 299 300 301 303 304 304 304 304 305 306 307 306 305 303 302 300 298 297 295 294 293 291 289 287 284 282 281 280 281 282 283 284 285 286 286 286 285 285 285 286 287 287 288 288 288 287 287 287 286 285 285 284 284 283 284 284 284 284 284 285 286 285 285 285
281 283 285 287 289 291 294 296 296 297 298 301 302 303 304 304 305 306 308 309 310 309 307 305 304 303 301 300 299 297 296 294 292 289 287 284 283 282 281 280 281 282 282 283 283 284 285 286 286 286 287 287 287 287 287 286 286 285 285 284 283 282 282 283 284 285 285 284 284 285 285 285 286 286
282 283 284 285 288 291 294 296 296 296 298 300 302 303 303 304 307 309 312 315 315 314 313 311 310 309 307 305 304 302 300 298 295 293 291 289 287 285 284 284 283 283 283 283 282 283 284 285 286 287 288 288 288 288 288 287 287 285 283 282 282 282 282 284 286 289 288 287 286 285 285 286 287 287
282 282 283 285 289 294 296 295 294 294 297 299 300 300 301 305 310 313 316 319 321 321 320 319 317 316 314 312 310 308 305 303 300 298 296 294 292 290 288 287 286 286 285 285 284 284 284 285 287 288 289 290 290 290 289 288 287 285 283 283 282 282 282 282 285 289 290 289 288 288 287 287 287 287
281 282 283 287 291 294 295 294 292 293 295 297 295 295 299 304 309 314 318 321 324 326 325 324 323 321 320 318 317 315 313 310 307 305 303 301 299 296 293 291 289 288 287 287 287 287 287 287 288 289 291 292 292 291 289 287 286 285 284 283 281 281 280 280 284 287 288 288 288 288 287 287 286 286
281 282 283 286 289 291 292 290 290 291 294 295 292 291 295 300 306 314 320 323 326 327 327 326 325 324 323 324 324 324 323 319 316 312 309 307 304 301 298 295 293 291 290 290 290 289 289 289 289 290 291 292 291 290 288 287 286 286 285 282 281 281 281 282 284 287 287 286 286 286 285 283 284 285
281 282 283 284 286 288 289 287 287 291 294 294 291 290 292 298 306 314 319 321 322 324 325 325 325 325 325 327 328 329 330 328 325 322 318 313 310 306 303 299 296 295 294 293 293 293 293 292 291 291 291 291 291 290 290 290 290 289 288 285 283 282 281 282 284 285 286 285 284 283 282 282 284 286
281 282 282 283 284 286 287 286 287 292 296 296 294 292 292 296 304 310 314 317 319 320 322 323 323 324 325 326 327 329 330 331 331 330 327 324 320 316 312 308 305 303 302 301 300 298 297 296 295 295 294 293 293 292 292 292 291 291 289 287 286 285 286 288 290 290 289 288 286 284 285 286 287 287
281 282 282 282 284 285 286 286 288 292 296 297 297 294 292 295 300 306 311 313 315 317 319 319 320 320 321 321 323 324 326 327 329 330 330 329 327 325 322 320 317 315 314 312 310 308 306 304 302 300 298 297 297 296 295 294 294 294 294 293 293 294 295 296 296 294 292 290 288 287 287 287 287 289
280 282 282 282 283 284 285 286 288 290 293 296 297 296 294 293 296 300 304 307 309 312 314 315 315 316 316 316 317 318 319 321 323 325 326 326 327 327 326 325 324 322 321 320 319 319 318 316 313 311 309 307 304 304 304 303 302 301 301 300 299 298 296 295 294 291 288 286 285 285 285 286 288 290
279 280 281 281 282 284 285 286 287 289 292 294 295 296 296 294 294 295 296 299 302 304 306 308 309 310 311 312 313 313 314 315 316 317 319 319 320 321 320 320 320 319 319 320 321 320 320 320 319 317 314 310 307 308 307 304 302 300 299 298 296 294 292 290 288 286 283 282 282 284 285 288 290 292
278 279 279 280 282 283 285 285 286 287 290 293 295 295 295 294 294 294 294 295 296 298 300 302 304 305 307 307 308 310 310 311 312 312 313 314 314 314 314 313 312 312 311 311 311 311 311 311 310 309 306 303 302 303 301 299 297 296 295 294 292 290 287 286 285 284 283 284 285 286 288 290 291 292
278 279 280 280 280 281 282 284 285 286 289 292 294 295 295 294 293 293 294 294 295 295 296 298 299 301 303 304 306 307 308 309 309 309 309 309 308 308 308 307 307 306 305 304 304 303 303 301 300 300 300 298 298 298 296 295 294 293 292 290 288 286 285 285 285 285 285 286 287 288 289 290 291 292
283 283 282 280 279 279 279 280 282 284 286 290 292 293 293 293 292 292 293 294 295 296 296 297 298 299 301 303 304 306 307 309 309 309 309 309 308 307 306 305 304 303 302 302 301 301 299 298 297 296 295 295 294 294 293 293 292 291 289 288 286 286 285 285 285 285 286 286 287 288 289 290 291 291
287 288 285 281 278 276 276 277 280 282 284 287 289 291 291 291 290 290 291 293 294 295 296 296 297 298 300 301 303 304 306 308 309 310 310 309 309 308 306 305 303 302 301 301 301 300 299 298 297 296 295 294 293 292 292 291 290 288 287 286 285 285 284 284 284 285 286 286 286 287 288 289 289 289
283 284 284 281 277 275 275 276 278 280 282 284 286 288 289 289 288 288 288 290 291 293 293 294 295 296 297 299 300 302 303 305 306 307 307 307 308 308 307 306 305 304 303 303 302 302 300 299 298 297 295 293 292 291 290 288 287 286 285 285 285 284 284 284 284 285 286 286 287 287 287 287 287 287
278 279 279 279 276 274 274 274 276 277 279 281 283 285 286 286 286 285 286 287 288 290 291 291 293 294 295 297 298 300 301 302 303 304 304 305 305 306 306 305 305 305 304 303 302 301 300 299 297 295 294 292 291 290 289 289 288 287 286 286 286 285 285 285 285 285 285 285 285 285 286 286 286 287
275 276 276 276 274 273 272 273 274 276 277 279 281 283 285 285 285 284 284 285 286 288 289 290 291 293 295 296 298 299 301 302 302 303 303 303 304 304 303 303 303 302 302 301 301 300 298 297 296 295 294 293 292 291 291 290 290 289 288 288 287 286 286 286 285 285 285 286 286 287 287 287 287 287
Height
5918 5918 5918 5918 5918 5918 5919 5920 5921 5921 5921 5921 5921 5921 5921 5921 5921 5921 5922 5921 5921 5920 5920 5921 5921 5920 5920 5920 5921 5921 5921 5921 5921 5921 5921 5920 5920 5920 5920 5920 5920 5919 5919 5919 5919 5919 5919 5919 5919 5919 5919 5919 5918 5918 5918 5918 5917 5917 5917 5916 5916 5916 5915 5915 5915 5915 5914 5914 5914 5913 5913 5912 5912 5912
5917 5917 5917 5917 5917 5917 5918 5918 5919 5920 5920 5920 5920 5920 5921 5921 5921 5921 5921 5922 5921 5921 5920 5921 5921 5920 5920 5920 5920 5920 5920 5920 5920 5920 5920 5920 5920 5919 5919 5919 5919 5918 5918 5918 5918 5918 5918 5918 5918 5918 5918 5918 5918 5917 5917 5917 5917 5916 5916 5915 5915 5915 5914 5914 5914 5913 5913 5913 5912 5912 5911 5911 5910 5910
5916 5916 5917 5917 5917 5917 5917 5918 5918 5919 5919 5920 5920 5920 5920 5921 5921 5921 5921 5921 5921 5920 5920 5920 5920 5920 5920 5919 5919 5919 5919 5919 5919 5919 5919 5919 5919 5918 5918 5918 5917 5917 5917 5917 5917 5917 5917 5917 5917 5917 5917 5917 5916 5916 5916 5915 5915 5915 5915 5914 5914 5913 5913 5913 5912 5912 5911 5911 5911 5910 5909 5909 5908 5908
5916 5917 5917 5918 5917 5917 5917 5918 5918 5918 5919 5919 5919 5919 5920 5920 5920 5920 5920 5919 5919 5919 5919 5919 5919 5919 5918 5918 5918 5917 5917 5917 5918 5918 5918 5918 5917 5917 5917 5916 5916 5916 5916 5916 5915 5915 5915 5915 5915 5915 5915 5915 5915 5915 5914 5914 5914 5913 5913 5913 5912 5912 5912 5911 5911 5910 5910 5909 5909 5908 5908 5907 5906 5906
5917 5918 5919 5919 5919 5918 5917 5917 5917 5917 5917 5917 5918 5918 5918 5918 5918 5918 5918 5918 5918 5918 5918 5917 5917 5917 5917 5916 5916 5915 5915 5915 5916 5916 5916 5916 5915 5915 5915 5914 5914 5914 5914 5913 5913 5913 5913 5913 5913 5913 5913 5913 5913 5912 5912 5912 5912 5912 5911 5911 5911 5910 5910 5910 5909 5909 5908 5908 5907 5906 5906 5905 5904 5904
5917 5918 5918 5919 5919 5918 5917 5916 5916 5915 5916 5916 5916 5916 5917 5917 5916 5917 5917 5917 5916 5917 5917 5916 5916 5915 5915 5915 5914 5914 5914 5914 5914 5914 5914 5914 5913 5913 5913 5912 5912 5912 5912 5911 5911 5911 5910 5910 5910 5910 5910 5910 5910 5910 5910 5909 5909 5909 5909 5908 5908 5908 5908 5907 5907 5906 5906 5905 5905 5904 5903 5903 5902 5901
5915 5916 5916 5916 5916 5917 5917 5916 5915 5915 5915 5915 5915 5915 5915 5915 5915 5915 5915 5915 5915 5915 5915 5914 5914 5914 5914 5914 5912 5912 5911 5911 5912 5912 5912 5912 5911 5911 5910 5910 5910 5910 5909 5909 5908 5908 5908 5907 5907 5907 5907 5907 5907 5907 5906 5906 5906 5906 5906 5906 5905 5905 5905 5904 5904 5904 5903 5903 5902 5901 5900 5900 5899 5898
5914 5914 5914 5913 5913 5914 5915 5916 5915 5915 5914 5914 5914 5913 5913 5913 5913 5913 5914 5914 5914 5913 5912 5912 5912 5912 5912 5912 5911 5910 5910 5909 5910 5910 5909 5909 5909 5908 5908 5908 5908 5907 5907 5906 5906 5906 5905 5905 5904 5904 5904 5904 5903 5903 5903 5903 5903 5902 5902 5902 5902 5902 5902 5901 5901 5901 5900 5899 5899 5898 5897 5897 5896 5895
5912 5912 5912 5912 5912 5913 5914 5914 5914 5913 5913 5912 5912 5911 5911 5911 5912 5912 5912 5912 5912 5911 5911 5910 5910 5910 5910 5910 5910 5910 5910 5909 5908 5908 5908 5907 5907 5906 5905 5904 5904 5904 5904 5904 5903 5903 5903 5902 5902 5901 5901 5901 5900 5900 5900 5900 5899 5899 5899 5899 5898 5898 5898 5898 5897 5897 5897 5896 5895 5895 5894 5893 5892 5891
5909 5909 5910 5911 5912 5911 5911 5911 5911 5911 5911 5910 5910 5910 5910 5910 5910 5910 5910 5909 5909 5910 5909 5909 5908 5908 5908 5909 5908 5908 5907 5907 5906 5906 5905 5904 5904 5903 5902 5902 5901 5900 5900 5900 5900 5900 5899 5899 5899 5898 5898 5898 5897 5897 5896 5896 5896 5895 5895 5895 5895 5894 5894 5894 5894 5893 5893 5892 5891 5891 5890 5889 5888 5888
5907 5907 5908 5909 5909 5909 5908 5908 5909 5909 5909 5909 5909 5909 5908 5908 5908 5908 5907 5907 5907 5908 5908 5907 5907 5907 5907 5907 5907 5906 5905 5903 5903 5903 5902 5901 5900 5900 5899 5898 5898 5897 5897 5897 5896 5896 5896 5896 5895 5895 5895 5894 5894 5894 5893 5893 5892 5892 5892 5891 5891 5891 5890 5890 5890 5889 5889 5888 5887 5887 5886 5885 5885 5884
5905 5906 5907 5907 5907 5906 5906 5907 5907 5907 5907 5907 5907 5907 5906 5906 5906 5905 5905 5905 5905 5905 5905 5905 5905 5905 5905 5905 5904 5904 5903 5901 5900 5900 5899 5898 5897 5896 5895 5894 5894 5894 5894 5893 5893 5893 5893 5893 5892 5892 5891 5891 5891 5890 5890 5889 5889 5889 5888 5888 5887 5887 5887 5886 5886 5885 5885 5884 5884 5883 5882 5881 5881 5880
5904 5904 5904 5905 5905 5905 5905 5905 5905 5905 5905 5905 5905 5905 5904 5904 5903 5903 5903 5903 5903 5903 5904 5904 5903 5902 5902 5902 5901 5901 5901 5900 5899 5898 5897 5895 5894 5893 5892 5891 5891 5891 5891 5891 5890 5889 5889 5889 5889 5889 5888 5888 5887 5886 5886 5886 5886 5885 5884 5884 5884 5883 5883 5883 5882 5882 5881 5881 5880 5879 5878 5878 5877 5876
5902 5902 5903 5903 5903 5904 5904 5904 5903 5903 5903 5903 5903 5903 5902 5902 5901 5901 5901 5901 5901 5901 5902 5901 5900 5899 5899 5899 5898 5898 5898 5897 5896 5895 5893 5892 5891 5891 5890 5889 5888 5888 5888 5887 5886 5885 5886 5886 5886 5885 5885 5885 5884 5883 5883 5883 5882 5881 5881 5880 5880 5880 5879 5879 5879 5878 5878 5877 5876 5876 5875 5874 5873 5872
5900 5900 5900 5901 5902 5902 5902 5902 5901 5901 5900 5900 5900 5900 5900 5900 5899 5899 5899 5899 5899 5899 5899 5899 5897 5896 5896 5896 5895 5895 5893 5892 5891 5890 5889 5889 5888 5888 5888 5887 5886 5885 5884 5884 5883 5882 5882 5882 5882 5882 5882 5881 5881 5880 5880 5879 5879 5878 5878 5877 5877 5877 5876 5876 5875 5874 5874 5873 5872 5872 5871 5870 5869 5868
5898 5898 5899 5900 5900 5900 5900 5899 5899 5899 5899 5899 5898 5898 5898 5898 5897 5897 5897 5896 5897 5897 5897 5896 5895 5893 5893 5893 5892 5891 5889 5888 5887 5886 5886 5886 5886 5885 5885 5885 5883 5881 5882 5882 5881 5879 5877 5877 5878 5878 5878 5877 5876 5876 5876 5876 5875 5875 5874 5874 5873 5873 5872 5872 5871 5870 5870 5869 5868 5867 5867 5866 5864 5863
5897 5897 5898 5898 5898 5898 5897 5897 5897 5897 5897 5897 5897 5896 5896 5895 5895 5894 5894 5894 5894 5894 5894 5893 5892 5890 5890 5890 5889 5887 5885 5884 5883 5883 5883 5883 5883 5882 5882 5882 5880 5878 5878 5878 5878 5876 5875 5874 5873 5874 5873 5872 5872 5872 5872 5872 5871 5870 5870 5870 5869 5869 5868 5868 5867 5866 5865 5864 5864 5863 5862 5861 5860 5859
5895 5896 5896 5896 5896 5896 5895 5895 5895 5895 5895 5895 5895 5894 5894 5893 5893 5892 5892 5891 5891 5891 5891 5890 5889 5887 5887 5887 5886 5883 5882 5881 5881 5881 5880 5879 5878 5878 5877 5877 5876 5874 5873 5873 5872 5872 5872 5870 5869 5869 5869 5868 5868 5868 5867 5867 5867 5866 5866 5865 5865 5865 5864 5863 5862 5861 5860 5860 5859 5859 5858 5857 5856 5855
5894 5894 5894 5895 5895 5894 5893 5893 5893 5892 5892 5892 5892 5892 5892 5891 5891 5890 5889 5889 5888 5888 5888 5887 5887 5885 5884 5884 5882 5879 5878 5878 5878 5878 5877 5875 5874 5873 5872 5871 5871 5869 5868 5867 5866 5867 5867 5867 5865 5865 5864 5864 5864 5863 5862 5862 5862 5861 5861 5861 5860 5860 5859 5859 5858 5857 5856 5856 5855 5854 5854 5853 5852 5852
5892 5892 5892 5892 5892 5892 5891 5891 5890 5890 5889 5890 5890 5889 5889 5889 5888 5888 5887 5886 5885 5885 5885 5884 5883 5882 5881 5880 5878 5876 5874 5873 5874 5875 5874 5870 5869 5869 5867 5866 5865 5865 5864 5862 5861 5862 5863 5862 5861 5860 5860 5859 5859 5858 5858 5857 5857 5856 5856 5856 5856 5855 5854 5853 5853 5852 5852 5852 5851 5850 5850 5850 5849 5848
5890 5890 5890 5890 5890 5889 5889 5888 5887 5887 5887 5887 5887 5887 5886 5886 5886 5885 5884 5883 5883 5882 5881 5881 5880 5879 5877 5876 5875 5873 5870 5868 5869 5871 5869 5865 5863 5865 5864 5863 5862 5861 5859 5858 5858 5858 5858 5858 5857 5856 5855 5855 5854 5854 5854 5853 5852 5852 5852 5851 5851 5850 5849 5849 5848 5848 5848 5847 5847 5846 5846 5846 5845 5844
5888 5888 5888 5887 5886 5886 5885 5885 5884 5884 5883 5883 5883 5883 5883 5883 5882 5881 5880 5880 5879 5879 5878 5877 5876 5875 5873 5872 5871 5870 5867 5864 5864 5865 5864 5861 5861 5862 5861 5859 5858 5856 5855 5854 5855 5855 5854 5853 5852 5851 5851 5850 5850 5850 5850 5849 5848 5848 5848 5847 5847 5846 5845 5845 5845 5844 5844 5843 5843 5842 5842 5841 5841 5840
5886 5885 5885 5884 5883 5882 5882 5882 5881 5880 5880 5879 5879 5879 5879 5879 5878 5878 5877 5876 5875 5875 5874 5873 5872 5871 5869 5868 5867 5865 5863 5862 5860 5860 5859 5858 5857 5856 5855 5853 5852 5851 5851 5851 5851 5851 5849 5848 5847 5847 5847 5846 5846 5846 5846 5845 5845 5844 5844 5844 5843 5842 5842 5841 5841 5840 5840 5839 5839 5838 5838 5837 5836 5835
5883 5882 5882 5881 5879 5879 5879 5879 5878 5878 5877 5876 5876 5875 5875 5875 5874 5874 5873 5872 5871 5871 5870 5869 5868 5867 5865 5864 5863 5861 5860 5858 5857 5856 5855 5853 5851 5849 5848 5847 5847 5846 5847 5848 5848 5847 5844 5843 5843 5844 5843 5842 5842 5842 5842 5842 5841 5841 5841 5841 5840 5838 5838 5837 5837 5837 5836 5835 5834 5834 5833 5832 5832 5831
5880 5880 5879 5878 5877 5877 5877 5876 5876 5875 5874 5874 5873 5872 5871 5871 5870 5869 5868 5868 5867 5866 5866 5865 5864 5863 5862 5861 5859 5858 5857 5855 5853 5852 5850 5849 5846 5843 5842 5843 5843 5842 5843 5843 5844 5843 5840 5839 5840 5840 5839 5838 5838 5838 5838 5838 5838 5837 5837 5837 5836 5835 5834 5833 5833 5832 5832 5831 5830 5829 5828 5827 5827 5826
5878 5877 5877 5876 5874 5874 5874 5873 5873 5872 5872 5871 5870 5869 5868 5867 5867 5866 5865 5864 5863 5862 5861 5860 5860 5858 5857 5857 5855 5854 5852 5851 5849 5847 5845 5844 5842 5839 5837 5838 5838 5838 5839 5839 5839 5838 5836 5835 5835 5835 5834 5834 5833 5833 5834 5834 5834 5833 5832 5832 5831 5831 5830 5829 5828 5828 5827 5826 5826 5824 5824 5823 5822 5821
5875 5875 5874 5873 5872 5871 5871 5870 5870 5869 5869 5868 5867 5866 5865 5864 5863 5862 5861 5860 5859 5858 5857 5856 5855 5854 5853 5852 5850 5848 5847 5846 5845 5843 5841 5839 5838 5836 5834 5833 5832 5832 5833 5834 5834 5833 5832 5831 5831 5830 5830 5829 5829 5828 5829 5829 5828 5828 5828 5827 5826 5826 5825 5825 5824 5823 5823 5821 5820 5820 5819 5818 5817 5816
5872 5872 5871 5870 5869 5869 5868 5868 5867 5866 5866 5865 5864 5863 5862 5861 5860 5859 5858 5857 5856 5854 5853 5852 5851 5849 5848 5846 5845 5844 5842 5841 5840 5838 5837 5835 5833 5832 5831 5830 5829 5828 5828 5829 5828 5828 5827 5826 5826 5826 5826 5825 5825 5824 5824 5823 5823 5823 5822 5822 5821 5821 5820 5820 5819 5819 5818 5817 5816 5815 5814 5813 5813 5812
5870 5869 5868 5868 5867 5866 5866 5865 5864 5863 5862 5862 5861 5860 5859 5858 5857 5855 5854 5853 5852 5850 5849 5848 5846 5845 5843 5842 5841 5839 5838 5836 5835 5833 5832 5830 5829 5827 5826 5825 5825 5824 5824 5824 5823 5823 5822 5822 5821 5821 5821 5821 5820 5820 5819 5818 5818 5818 5817 5817 5816 5815 5815 5815 5814 5813 5812 5811 5811 5811 5810 5809 5809 5808
5868 5867 5866 5865 5865 5864 5863 5862 5862 5860 5859 5858 5857 5856 5855 5854 5853 5852 5850 5849 5848 5847 5845 5844 5842 5841 5840 5838 5836 5835 5833 5832 5830 5828 5827 5825 5824 5822 5821 5820 5819 5819 5819 5819 5818 5818 5818 5817 5817 5817 5817 5816 5816 5815 5814 5814 5813 5813 5813 5812 5811 5810 5810 5809 5809 5808 5807 5807 5807 5806 5806 5806 5805 5805
5865 5864 5863 5863 5862 5861 5860 5860 5859 5858 5857 5855 5854 5853 5852 5851 5850 5848 5847 5845 5844 5843 5842 5840 5839 5837 5836 5834 5832 5830 5829 5827 5826 5824 5822 5821 5820 5818 5816 5815 5814 5814 5813 5813 5813 5813 5813 5812 5812 5812 5811 5811 5811 5810 5810 5809 5809 5808 5808 5807 5806 5805 5805 5805 5805 5805 5804 5804 5803 5803 5803 5802 5802 5802
5862 5862 5861 5859 5859 5858 5857 5857 5856 5855 5854 5852 5851 5850 5849 5848 5847 5845 5844 5842 5841 5840 5839 5837 5836 5834 5833 5831 5829 5827 5825 5823 5822 5820 5819 5817 5816 5814 5813 5812 5810 5809 5809 5808 5808 5808 5808 5808 5807 5807 5807 5806 5806 5806 5805 5805 5804 5804 5804 5803 5802 5801 5801 5801 5801 5801 5801 5801 5800 5800 5800 5799 5799 5799
5860 5859 5858 5857 5856 5855 5855 5854 5853 5852 5851 5849 5848 5847 5846 5845 5844 5843 5841 5840 5838 5837 5836 5835 5834 5832 5830 5828 5826 5824 5822 5820 5819 5817 5816 5814 5813 5811 5810 5809 5807 5806 5805 5805 5804 5804 5804 5803 5803 5802 5802 5802 5801 5801 5801 5800 5800 5800 5800 5800 5799 5798 5798 5798 5798 5798 5798 5798 5798 5797 5797 5797 5797 5796
5857 5856 5855 5854 5853 5852 5852 5851 5850 5849 5848 5847 5846 5844 5843 5842 5841 5840 5838 5837 5836 5835 5834 5833 5832 5830 5828 5826 5824 5822 5820 5818 5816 5815 5813 5812 5810 5809 5807 5806 5805 5804 5803 5802 5801 5800 5800 5799 5799 5798 5798 5797 5797 5797 5796 5796 5796 5796 5797 5797 5796 5796 5796 5796 5795 5795 5795 5795 5795 5795 5795 5795 5794 5794
5853 5853 5852 5851 5850 5849 5849 5848 5847 5846 5845 5844 5843 5842 5841 5840 5838 5837 5836 5835 5833 5832 5831 5830 5829 5828 5826 5825 5823 5820 5818 5816 5815 5813 5811 5810 5808 5807 5805 5804 5802 5801 5800 5799 5798 5797 5796 5796 5795 5795 5794 5794 5793 5793 5793 5793 5793 5793 5793 5793 5793 5793 5793 5793 5793 5793 5793 5793 5793 5792 5792 5792 5792 5792
5850 5849 5849 5848 5847 5847 5846 5845 5844 5843 5843 5841 5840 5839 5838 5837 5836 5834 5833 5832 5831 5830 5829 5828 5826 5825 5824 5823 5821 5819 5817 5815 5813 5811 5810 5808 5807 5805 5804 5802 5801 5799 5798 5797 5796 5795 5794 5793 5792 5792 5791 5791 5790 5790 5790 5790 5790 5790 5791 5791 5791 5791 5791 5791 5791 5790 5790 5790 5790 5790 5790 5790 5790 5789
5846 5846 5846 5845 5844 5844 5843 5842 5841 5841 5840 5839 5838 5837 5836 5834 5833 5832 5830 5829 5828 5827 5826 5825 5824 5823 5822 5820 5819 5817 5815 5813 5812 5810 5808 5807 5805 5804 5802 5801 5799 5798 5797 5795 5794 5793 5792 5791 5790 5790 5789 5789 5788 5788 5788 5788 5788 5788 5789 5789 5789 5789 5788 5788 5788 5788 5788 5788 5788 5788 5788 5787 5787 5787
5843 5842 5842 5842 5841 5840 5840 5839 5839 5838 5837 5836 5835 5834 5833 5831 5830 5829 5828 5826 5825 5824 5823 5822 5821 5820 5819 5818 5816 5815 5813 5812 5810 5808 5807 5805 5804 5802 5801 5800 5798 5797 5796 5794 5793 5792 5791 5790 5790 5789 5788 5787 5787 5787 5787 5786 5786 5786 5786 5786 5786 5786 5786 5786 5786 5786 5786 5786 5786 5785 5785 5785 5784 5784
5839 5839 5838 5838 5837 5837 5837 5836 5835 5835 5834 5833 5832 5831 5830 5829 5828 5826 5825 5824 5823 5822 5821 5820 5819 5817 5816 5815 5814 5812 5811 5809 5808 5806 5805 5803 5802 5800 5799 5798 5796 5795 5794 5793 5792 5791 5790 5789 5788 5788 5787 5786 5785 5785 5785 5784 5784 5784 5783 5783 5783 5783 5783 5783 5783 5783 5783 5783 5783 5783 5782 5782 5782 5781
5835 5835 5834 5834 5834 5833 5833 5833 5832 5831 5831 5830 5829 5828 5826 5826 5825 5824 5822 5821 5820 5819 5818 5817 5816 5815 5814 5812 5811 5810 5808 5807 5806 5804 5803 5801 5800 5799 5797 5796 5794 5793 5792 5791 5790 5789 5788 5787 5786 5786 5785 5784 5784 5783 5783 5782 5782 5781 5781 5781 5780 5780 5781 5780 5780 5780 5780 5780 5780 5779 5779 5779 5778 5778
5832 5831 5830 5830 5830 5830 5829 5829 5829 5828 5827 5826 5825 5824 5823 5822 5821 5820 5819 5818 5817 5816 5815 5814 5813 5812 5811 5809 5808 5807 5805 5804 5803 5802 5800 5799 5797 5796 5795 5793 5792 5791 5789 5788 5788 5787 5785 5784 5784 5783 5783 5782 5781 5781 5780 5780 5779 5779 5779 5778 5778 5778 5778 5778 5777 5777 5777 5777 5777 5776 5776 5775 5775 5774
5828 5827 5827 5826 5826 5826 5825 5825 5825 5824 5823 5822 5821 5820 5819 5819 5818 5817 5816 5815 5814 5813 5812 5811 5810 5809 5807 5806 5805 5803 5802 5801 5800 5799 5797 5796 5794 5793 5792 5791 5790 5788 5787 5786 5785 5784 5783 5782 5781 5781 5780 5779 5779 5778 5777 5777 5777 5776 5776 5776 5776 5775 5775 5775 5774 5774 5773 5773 5773 5773 5772 5772 5771 5771
5825 5824 5823 5823 5822 5821 5821 5821 5821 5820 5819 5818 5818 5817 5816 5815 5814 5813 5812 5811 5810 5809 5809 5808 5806 5805 5804 5803 5802 5800 5799 5798 5797 5796 5795 5794 5792 5791 5790 5788 5787 5786 5785 5783 5783 5782 5781 5780 5779 5778 5778 5777 5776 5776 5775 5775 5774 5773 5773 5773 5773 5772 5772 5771 5771 5770 5770 5769 5769 5769 5769 5769 5768 5768
5820 5820 5819 5818 5818 5817 5817 5816 5816 5816 5815 5814 5814 5813 5812 5811 5810 5809 5808 5808 5807 5806 5805 5804 5803 5802 5800 5799 5798 5797 5796 5795 5794 5793 5792 5791 5790 5789 5787 5786 5785 5784 5782 5781 5780 5779 5778 5777 5777 5776 5775 5775 5774 5773 5773 5772 5771 5770 5770 5769 5769 5769 5769 5769 5768 5767 5767 5766 5766 5765 5765 5765 5765 5764
5815 5815 5814 5814 5813 5813 5813 5812 5812 5811 5811 5810 5809 5808 5807 5807 5806 5805 5804 5804 5803 5802 5802 5801 5800 5798 5797 5796 5795 5794 5793 5791 5791 5790 5789 5788 5787 5786 5785 5784 5783 5782 5780 5779 5778 5777 5776 5775 5774 5773 5772 5772 5771 5770 5770 5770 5769 5768 5767 5767 5766 5766 5766 5765 5765 5764 5764 5763 5762 5761 5761 5761 5761 5760